Location: Horowhenua
(40.7500°S, 175.3333°E)
Time: 05:19:31
(UTC+00:00)

ATLAS 2AS CENTAUR R/B - Pass Details

Date: 28 January 2023
Orbit: 986 x 1226 km, 63.7° (Epoch: 01 April)

Event Time Altitude Azimuth Distance (km) Brightness Sun altitude
Exits shadow 12:39:34 36° 265° (W) 1,547 3.5 -31.0°
Maximum altitude 12:41:23 44° 227° (SW) 1,384 3.4 -31.0°
Drops below altitude 10° 12:47:48 10° 155° (SSE) 2,885 5.7 -30.9°
Sets 12:50:40 0° 148° (SSE) 3,878 6.5 -30.9°
